sat.trackr.live / text

‹ back to catalog

STARLINK-4750

NORAD 53841 · 2022-114Z

PAYLOAD ACTIVE UNKNOWN

§ Identity

Operator
Country
US
Launch date
2022-09-19
Launch site
AFETR
Launch vehicle
Mass (kg)
RCS (m²)

Purposes: comms

External: N2YO · Heavens-Above · Gunter

§ Orbital elements

Epoch: 2026-09-20T22:00:03.000096Z

Period
94.96 min
Inclination
53.1604°
Eccentricity
0.0001950
Mean motion
15.16362218 rev/d
Perigee alt
515.5 km
Apogee alt
518.2 km
Semi-major
6,895.0 km
B*
1.1108e-3
RAAN
136.7780°
Arg perigee
98.7917°
Mean anomaly
66.5676°
Rev number
579

§ Raw data

STARLINK-47501 53841U 22114Z   26263.91670139  .00021568  00000+0  11108-2 0  99902 53841  53.1604 136.7780 0001950  98.7917  66.5676 15.16362218  5792

JSON: /api/v1/satellites/53841 · /tle

For live sub-satellite position, see the globe view (requires WebGL).

§ Visibility from observer

Set your observer location to see the next 7 days of passes ≥ 10°. The values pass through the URL so the page stays shareable.

No JS? Fill the form by hand. The geolocation button needs JavaScript.